Time_in_sec,Mx,My,Mz
1314272725.94153452,-0.21882270,0.34287962,-1.10563672
1314272726.00463033,-0.21954069,0.34173909,-1.10420918
1314272726.05246592,-0.21936125,0.34122631,-1.10353160
1314272726.10243440,-0.22151294,0.34175029,-1.10326004
1314272726.15049195,-0.21852203,0.34108648,-1.10308444
1314272726.20055485,-0.21964164,0.34135684,-1.10368121
1314272726.25472665,-0.22162847,0.33925807,-1.10550439
1314272726.30050635,-0.22085543,0.33835223,-1.10399365
1314272726.35290170,-0.22009176,0.33872971,-1.10474920
1314272726.40446424,-0.22004727,0.34226564,-1.10583472
1314272726.45250678,-0.21975392,0.34250978,-1.10542166
1314272726.50145221,-0.22125255,0.34011498,-1.10363114
1314272726.55349016,-0.22061461,0.34124643,-1.10413408
1314272726.60460830,-0.21950893,0.34072730,-1.10380173
1314272726.65226436,-0.21920609,0.34187400,-1.10538566
1314272726.70153952,-0.21986881,0.34187877,-1.10515809
1314272726.75330949,-0.21948107,0.34122482,-1.10327291
1314272726.80445528,-0.21873337,0.34059966,-1.10442019
1314272726.85341692,-0.21944635,0.33983532,-1.10286248
1314272726.90612078,-0.21910225,0.34087282,-1.10603595
1314272726.95349765,-0.21819384,0.34212705,-1.10652435
1314272727.00152135,-0.21853203,0.34033412,-1.10334492
1314272727.05362463,-0.22018665,0.33960348,-1.10396481
1314272727.10446453,-0.21913865,0.33934680,-1.10456669
1314272727.15359330,-0.21915540,0.34148717,-1.10458350
1314272727.20214272,-0.22067924,0.34138450,-1.10520065
1314272727.25360346,-0.21982165,0.34101412,-1.10674167
1314272727.30445051,-0.22144100,0.33974949,-1.10456836
1314272727.35248637,-0.21983165,0.34008723,-1.10248816
1314272727.40520406,-0.21919419,0.34136888,-1.10524857
1314272727.45410252,-0.22081989,0.34201556,-1.10521328
1314272727.50159192,-0.22028852,0.34035286,-1.10331249
1314272727.55253506,-0.21900687,0.33984885,-1.10456288
1314272727.60448790,-0.21925649,0.33909351,-1.10430610
1314272727.65258670,-0.21906894,0.34059063,-1.10324466
1314272727.70151925,-0.22041285,0.33999947,-1.10544062
1314272727.75349212,-0.21967712,0.33869922,-1.10233629
1314272727.80152106,-0.22066092,0.33997372,-1.10280001
1314272727.85349607,-0.21887064,0.33969709,-1.10229766
1314272727.90150428,-0.22090894,0.34112820,-1.10454822
1314272727.94172525,-0.21784945,0.33982271,-1.10330224
1314272728.00494766,-0.21812364,0.34322065,-1.10294485
1314272728.05308914,-0.21997716,0.34235355,-1.10238051
1314272728.10146618,-0.22000912,0.34034821,-1.10316384
1314272728.15248823,-0.21944621,0.34184673,-1.10261190
1314272728.20496225,-0.21837623,0.34284303,-1.10269105
1314272728.25171471,-0.21805015,0.34194946,-1.10186946
1314272728.30164766,-0.21870098,0.34144905,-1.10150468
1314272728.35360026,-0.22008902,0.34235054,-1.10198867
1314272728.40144444,-0.21981320,0.34086239,-1.10435104
1314272728.45361614,-0.21884128,0.34009302,-1.10402441
1314272728.50477910,-0.22224593,0.33948120,-1.10222316
1314272728.55248427,-0.22190233,0.34049442,-1.10314012
1314272728.60157418,-0.21986543,0.34034514,-1.10302281
1314272728.65357327,-0.21836933,0.34196168,-1.10268402
1314272728.70158434,-0.21886945,0.34276283,-1.10643482
1314272728.75260782,-0.21826938,0.34246984,-1.10321307
1314272728.80459118,-0.21828592,0.34043714,-1.10147345
1314272728.85330606,-0.21843107,0.34071633,-1.10387290
1314272728.90150738,-0.21843693,0.34247747,-1.10375357
1314272728.95244765,-0.21851942,0.34287041,-1.10508847
1314272729.00157595,-0.21853505,0.33970612,-1.10347319
1314272729.04443502,-0.21882544,0.33908427,-1.10388327
1314272729.10556602,-0.21929507,0.34199235,-1.10459530
1314272729.15356565,-0.21843101,0.34172207,-1.10374761
1314272729.20046163,-0.21982299,0.34312716,-1.10423565
1314272729.25250959,-0.21974061,0.34072280,-1.10315132
1314272729.30156803,-0.21826944,0.34146413,-1.10333836
1314272729.35328221,-0.22030148,0.33997819,-1.10357594
1314272729.40562057,-0.21990703,0.34261596,-1.10344028
1314272729.45230246,-0.21918419,0.34212124,-1.10498810
1314272729.50152922,-0.22156878,0.33974952,-1.10444283
1314272729.55250049,-0.21878906,0.34061030,-1.10535252
1314272729.60458875,-0.21882151,0.33858067,-1.10387933
1314272729.65250826,-0.22015527,0.34075332,-1.10556424
1314272729.70160317,-0.21926579,0.34138256,-1.10644722
1314272729.75360870,-0.21851169,0.33985177,-1.10533106
1314272729.80562210,-0.22100842,0.34064436,-1.10627568
1314272729.85418344,-0.21908633,0.34086978,-1.10576952
1314272729.90161061,-0.21829775,0.34212252,-1.10599935
1314272729.94162846,-0.22020693,0.34126604,-1.10636735
1314272730.00156808,-0.21846825,0.34250787,-1.10654283
1314272730.05258846,-0.21901080,0.34035248,-1.10456693
1314272730.10154843,-0.21920320,0.34049058,-1.10550797
1314272730.15247059,-0.21929649,0.34327418,-1.10672843
1314272730.20160079,-0.21789859,0.34111366,-1.10623455
1314272730.25102115,-0.22005995,0.33872363,-1.10421646
1314272730.30162358,-0.22040580,0.34112957,-1.10518312
1314272730.35260010,-0.21859469,0.34022036,-1.10440946
1314272730.40495491,-0.22002453,0.34037554,-1.10568666
1314272730.45247412,-0.21861792,0.34226066,-1.10681498
1314272730.50153446,-0.22066832,0.34100527,-1.10506451
1314272730.55247927,-0.22055849,0.34025437,-1.10558355
1314272730.60140014,-0.22080207,0.34075502,-1.10507023
1314272730.65352654,-0.21834055,0.34150213,-1.10679352
1314272730.70150924,-0.22058335,0.34038484,-1.10598409
1314272730.75258589,-0.21960045,0.34024194,-1.10539603
1314272730.80463028,-0.21933991,0.34061804,-1.10551667
1314272730.85259891,-0.21932717,0.33797559,-1.10562909
1314272730.90478420,-0.22071514,0.33988279,-1.10598791
1314272730.95247793,-0.21886340,0.34401882,-1.10617840
1314272731.00460935,-0.21945481,0.33998704,-1.10525310
1314272731.05574584,-0.21918131,0.34073782,-1.10511041
1314272731.10162663,-0.21973020,0.34049377,-1.10527265
1314272731.15360975,-0.22004530,0.34201384,-1.10583270
1314272731.20147061,-0.21833013,0.34109858,-1.10440087
1314272731.25258613,-0.22038306,0.33923948,-1.10503507
1314272731.30466175,-0.22000369,0.33974299,-1.10541534
1314272731.35253716,-0.21979736,0.33985364,-1.10420990
1314272731.40452528,-0.21887790,0.34274006,-1.10431159
1314272731.45246243,-0.21825796,0.34211490,-1.10533333
1314272731.50163269,-0.21915300,0.34007946,-1.10244942
1314272731.55350900,-0.21872647,0.33971831,-1.10441327
1314272731.60459328,-0.22033218,0.34186977,-1.10385716
1314272731.65260029,-0.21903452,0.34236845,-1.10471594
1314272731.70457911,-0.21836145,0.34095445,-1.10267615
1314272731.75249672,-0.22151408,0.33986479,-1.10351157
1314272731.80062699,-0.21969937,0.34061360,-1.10474086
1314272731.85046339,-0.21992612,0.33997959,-1.10408545
1314272731.90160656,-0.21931894,0.34199691,-1.10499489
1314272731.94249725,-0.21963762,0.34185895,-1.10355198
1314272732.00215840,-0.21922044,0.34260666,-1.10326827
1314272732.05359721,-0.21910112,0.34258384,-1.10127044
1314272732.10149479,-0.22110176,0.34224772,-1.10310745
1314272732.15245795,-0.21849021,0.34108040,-1.10255170
1314272732.20150495,-0.21908367,0.34348491,-1.10313427
1314272732.25649095,-0.21854639,0.34106675,-1.10122752
1314272732.30548382,-0.22050823,0.34084892,-1.10239959
1314272732.35347295,-0.21829478,0.34157029,-1.10148239
1314272732.40447879,-0.21885473,0.33969405,-1.10203135
1314272732.45294929,-0.22041820,0.34161040,-1.10306382
1314272732.50170374,-0.22017807,0.34146318,-1.10132360
1314272732.54451656,-0.21928675,0.33982921,-1.10245514
1314272732.60145640,-0.22060707,0.34222630,-1.10161912
1314272732.65403533,-0.21903108,0.34184054,-1.10245550
1314272732.70554209,-0.21989007,0.34349272,-1.10304761
1314272732.75259161,-0.21901721,0.34108359,-1.10231638
1314272732.80454946,-0.21983656,0.34071675,-1.10249305
1314272732.85358572,-0.21992858,0.34020710,-1.10183096
1314272732.90231156,-0.21876758,0.34183896,-1.10257316
1314272732.95351601,-0.21965219,0.33957446,-1.10181046
1314272733.00151515,-0.22058335,0.34021032,-1.10147011
1314272733.05528474,-0.22029802,0.33945027,-1.10131550
1314272733.10149574,-0.21976602,0.33982325,-1.10142064
1314272733.15321565,-0.21924339,0.34147960,-1.10379219
1314272733.20161676,-0.21894512,0.34109420,-1.10337412
1314272733.25249052,-0.22062312,0.34021792,-1.10213602
1314272733.30179501,-0.21994935,0.34184536,-1.10197699
1314272733.35247111,-0.21983346,0.34235045,-1.10223961
1314272733.40159798,-0.21929564,0.34096232,-1.10246408
1314272733.45390320,-0.22045304,0.34098849,-1.10372484
1314272733.50151205,-0.21980278,0.34045887,-1.10195827
1314272733.55260086,-0.22072801,0.34033930,-1.10161209
1314272733.60454702,-0.21835701,0.34030065,-1.10041475
1314272733.65258622,-0.21908486,0.34059367,-1.10351110
1314272733.70591426,-0.21953921,0.34146297,-1.10195076
1314272733.75247312,-0.22036117,0.33931223,-1.10012352
1314272733.80160809,-0.21925290,0.34057701,-1.10179508
1314272733.85077667,-0.21934681,0.34132487,-1.10100973
1314272733.90161204,-0.21882291,0.33968797,-1.10149860
1314272733.94553542,-0.21929063,0.34133852,-1.10233378
1314272734.00445819,-0.21804106,0.34383345,-1.10148466
1314272734.05248189,-0.22115554,0.34082633,-1.09964919
1314272734.10151839,-0.22063150,0.34120086,-1.09988749
1314272734.15245509,-0.21860306,0.34120330,-1.10216093
1314272734.20550537,-0.21837680,0.34181300,-1.10055983
1314272734.25145864,-0.21925642,0.33992472,-1.09966683
1314272734.30161738,-0.22123024,0.33920631,-1.10110140
1314272734.35258985,-0.21873730,0.34092876,-1.09991014
1314272734.40450406,-0.22026853,0.34185761,-1.10279167
1314272734.45259833,-0.21861193,0.34233645,-1.10216975
1314272734.50164938,-0.21885811,0.34105316,-1.09965253
1314272734.55360293,-0.22027218,0.33919388,-1.10091388
1314272734.60163903,-0.21936476,0.34057400,-1.10140336
1314272734.65462160,-0.21817496,0.34157178,-1.10174096
1314272734.70061970,-0.21830964,0.34245315,-1.10162246
1314272734.75260234,-0.22046149,0.34096572,-1.10160148
1314272734.80448318,-0.21987677,0.34170577,-1.10077727
1314272734.85249257,-0.22142756,0.33997396,-1.10204744
1314272734.90152001,-0.22011992,0.34122500,-1.10264575
1314272734.95328689,-0.21840468,0.34131548,-1.10108864
1314272735.00061011,-0.22041686,0.33932287,-1.10105586
1314272735.05153131,-0.21987183,0.34107625,-1.10077226
1314272735.10464907,-0.21977299,0.33969888,-1.10155284
1314272735.15261126,-0.21903424,0.33920112,-1.10283422
1314272735.20357466,-0.21872379,0.34233344,-1.10177791
1314272735.25267839,-0.22101840,0.33971748,-1.10202217
1314272735.30451608,-0.22069170,0.34085962,-1.10320652
1314272735.35248375,-0.22009613,0.34021473,-1.10237145
1314272735.40155625,-0.22062552,0.34162566,-1.10427022
1314272735.45361519,-0.21849810,0.34208763,-1.10255969
1314272735.50561953,-0.21944924,0.34121874,-1.10274017
1314272735.55257678,-0.21860616,0.33956960,-1.10241437
1314272735.60456562,-0.21921065,0.34034190,-1.10338366
1314272735.65251756,-0.21839525,0.34121236,-1.10321093
1314272735.70147491,-0.22004783,0.34123564,-1.10370350
1314272735.75307822,-0.22084643,0.33923051,-1.10373414
1314272735.80549932,-0.21985297,0.34086999,-1.10501695
1314272735.85512567,-0.21983080,0.33794990,-1.10273767
1314272735.90458250,-0.22073154,0.33986151,-1.10399771
1314272735.94509816,-0.21819186,0.34187523,-1.10652232
1314272736.00449920,-0.21872731,0.34185565,-1.10416365
1314272736.05257535,-0.22041714,0.34249020,-1.10293758
1314272736.10209131,-0.21813364,0.34246829,-1.10320532
1314272736.15245152,-0.21739383,0.34285033,-1.10436046
1314272736.20160127,-0.21823305,0.34299016,-1.10480750
1314272736.25245237,-0.22020039,0.34237185,-1.10385334
1314272736.30449796,-0.21827845,0.34058583,-1.10359776
1314272736.35248208,-0.21855582,0.34134439,-1.10361922
1314272736.40882826,-0.21795765,0.34248343,-1.10478806
1314272736.45274949,-0.21813816,0.34211639,-1.10559201
1314272736.50552964,-0.21997927,0.34076846,-1.10714698
1314272736.55249572,-0.22080821,0.33849332,-1.10545194
1314272736.60483313,-0.22065051,0.33974469,-1.10492134
1314272736.65395856,-0.21832168,0.34112138,-1.10652423
1314272736.70160985,-0.22019307,0.34050912,-1.10622823
1314272736.75258350,-0.21948254,0.34150094,-1.10553145
1314272736.80181241,-0.21939954,0.34113231,-1.10645306
1314272736.85259891,-0.21905157,0.34048599,-1.10523379
1314272736.90147495,-0.21850310,0.34188595,-1.10720384
1314272736.95258570,-0.21926677,0.34150848,-1.10644817
1314272737.00153995,-0.22014189,0.34014657,-1.10768259
1314272737.05364037,-0.22077173,0.34102505,-1.10679591
1314272737.10446572,-0.21959828,0.34300727,-1.10501826
1314272737.15259981,-0.21929908,0.34149024,-1.10472453
1314272737.20451021,-0.21993351,0.34101114,-1.10634983
1314272737.25249076,-0.21838243,0.33975011,-1.10771203
1314272737.30166149,-0.21892576,0.34073776,-1.10536122
1314272737.35245943,-0.21991858,0.34113398,-1.10608447
1314272737.40147305,-0.21934329,0.34215167,-1.10765195
1314272737.45344639,-0.21898054,0.33961681,-1.10641789
1314272737.50063396,-0.22005051,0.33862051,-1.10633874
1314272737.55244851,-0.22009605,0.34139496,-1.10676014
1314272737.60053205,-0.21872689,0.34087422,-1.10654545
1314272737.65245128,-0.21990064,0.34188485,-1.10569084
1314272737.69345617,-0.21980624,0.34116128,-1.10873282
1314272737.75247812,-0.21937561,0.34213346,-1.10592818
1314272737.80046964,-0.22068614,0.34226581,-1.10520756
1314272737.85351610,-0.22043319,0.34065634,-1.10796845
1314272737.90145421,-0.21853442,0.34174183,-1.10547912
1314272737.94544601,-0.21715175,0.34262580,-1.10713220
1314272738.00050879,-0.22032613,0.34330028,-1.10811460
1314272738.05249476,-0.21757174,0.34426722,-1.10716832
1314272738.10152650,-0.21929958,0.34164047,-1.10698199
1314272738.15559745,-0.21886206,0.34190580,-1.10868442
1314272738.19351816,-0.21898195,0.34089860,-1.10855103
1314272738.25359321,-0.21896146,0.34225318,-1.10577273
1314272738.30152917,-0.21916687,0.34101090,-1.10710251
1314272738.35276389,-0.22009452,0.34229907,-1.10889041
1314272738.40449977,-0.21946768,0.34079260,-1.10990524
1314272738.45360136,-0.21849670,0.34115484,-1.10945439
1314272738.50225592,-0.21967141,0.34229136,-1.10860074
1314272738.55247688,-0.22003101,0.34027547,-1.10807538
1314272738.60464907,-0.21865791,0.33925113,-1.10785675
1314272738.65419340,-0.22081405,0.34042895,-1.10984659
1314272738.70161223,-0.21872738,0.34102443,-1.10880291
1314272738.75311899,-0.22040081,0.34168026,-1.10956693
1314272738.80446172,-0.22028804,0.34055167,-1.11008298
1314272738.85324979,-0.21980271,0.34181359,-1.11086106
1314272738.90213633,-0.22115315,0.33994216,-1.11105692
1314272738.94462276,-0.21834055,0.34167662,-1.11130750
1314272739.00163603,-0.21931690,0.34292531,-1.10938156
1314272739.05351996,-0.21813168,0.34239098,-1.10771728
1314272739.10482001,-0.21927227,0.34128249,-1.10883594
1314272739.15246892,-0.22066580,0.34195799,-1.11170769
1314272739.20565915,-0.21922798,0.34180129,-1.11029720
1314272739.25249577,-0.21927817,0.34203792,-1.10884190
1314272739.30197620,-0.22039096,0.34042123,-1.10955703
1314272739.35259485,-0.21983410,0.34066376,-1.10926151
1314272739.40458584,-0.21915795,0.34105799,-1.11148226
1314272739.45394754,-0.21918575,0.34156618,-1.11188579
1314272739.50148940,-0.21912506,0.34193170,-1.11082327
1314272739.55258965,-0.22031936,0.34040755,-1.10835826
1314272739.60446644,-0.22043616,0.34120858,-1.11248541
1314272739.65258026,-0.21927480,0.34067878,-1.11122072
1314272739.69259048,-0.21991965,0.34042868,-1.11072469
1314272739.75299835,-0.21951437,0.34168154,-1.11057818
1314272739.80162144,-0.22088712,0.34054425,-1.10878980
1314272739.85386062,-0.21947967,0.34029204,-1.11016762
1314272739.90448928,-0.21952344,0.33979753,-1.11096287
1314272739.94447684,-0.22071105,0.34156510,-1.11024737
1314272740.00448251,-0.22012739,0.34142536,-1.10954940
1314272740.05258942,-0.21982214,0.34116435,-1.10899913
1314272740.10448217,-0.22106065,0.34030160,-1.10946155
1314272740.15249372,-0.21794689,0.34026727,-1.10941648
1314272740.19363904,-0.21993950,0.34093535,-1.11099505
1314272740.25367379,-0.21935174,0.34230340,-1.11004257
1314272740.30086064,-0.21924931,0.34240952,-1.10831213
1314272740.35245967,-0.22052521,0.34014669,-1.10730624
1314272740.40447950,-0.22031577,0.34206554,-1.11036122
1314272740.44568539,-0.21815407,0.34229395,-1.11037242
1314272740.50148153,-0.21978131,0.34203655,-1.10820699
1314272740.55339479,-0.22093372,0.34243888,-1.10933745
1314272740.60060072,-0.22042812,0.34203824,-1.10771298
1314272740.65556216,-0.21879645,0.34164184,-1.10761690
1314272740.69249558,-0.21997286,0.34003732,-1.10939753
1314272740.75360799,-0.21989113,0.34278744,-1.10768783
1314272740.80446815,-0.21913499,0.34201053,-1.10644448
1314272740.85261011,-0.22082052,0.34015435,-1.10772133
1314272740.90152097,-0.21811225,0.34304023,-1.10957921
1314272740.94444799,-0.21873732,0.34127778,-1.10893810
1314272741.00045180,-0.22047479,0.34292719,-1.10838580
1314272741.05250573,-0.22009008,0.34164524,-1.10662889
1314272741.10617328,-0.21984953,0.34051660,-1.10727048
1314272741.15247178,-0.21861412,0.33974564,-1.10706151
1314272741.20453715,-0.21956766,0.34028447,-1.10937631
1314272741.25297499,-0.22025889,0.33775595,-1.10767150
1314272741.30186987,-0.21962890,0.33888891,-1.10830760
1314272741.35353351,-0.22017871,0.33977646,-1.10834551
1314272741.40157080,-0.21869957,0.34051627,-1.10839939
1314272741.44206858,-0.21880743,0.34101534,-1.10787833
1314272741.50161958,-0.21894097,0.34378225,-1.10750830
1314272741.55359435,-0.21737659,0.34073427,-1.10660017
1314272741.60448956,-0.21977687,0.34138271,-1.10594547
1314272741.65252066,-0.21902376,0.34015232,-1.10934424
1314272741.69331360,-0.22012943,0.34067145,-1.10967660
1314272741.75247145,-0.21845742,0.34112293,-1.10653198
1314272741.80448389,-0.21932541,0.34189683,-1.10738349
1314272741.85363603,-0.21902721,0.34050572,-1.10709071
1314272741.90449309,-0.21823566,0.34138075,-1.10731757
1314272741.94478559,-0.21972717,0.34129629,-1.10965836
1314272742.00472069,-0.21984348,0.34177259,-1.10701394
1314272742.05248308,-0.22079659,0.34115550,-1.10719645
1314272742.10214138,-0.21998723,0.34076998,-1.10728025
1314272742.15246606,-0.22030134,0.34216410,-1.10783935
1314272742.20117354,-0.21861559,0.34002173,-1.10932004
1314272742.25423908,-0.22002904,0.34002367,-1.10807335
1314272742.30564141,-0.22152606,0.33953872,-1.10828793
1314272742.35361409,-0.22117998,0.34014991,-1.10694540
1314272742.40446949,-0.22035547,0.34290436,-1.10638797
1314272742.44160962,-0.21969078,0.34264779,-1.10661364
1314272742.50210595,-0.22028445,0.34203517,-1.10757196
1314272742.55346823,-0.22001059,0.34062433,-1.10542226
1314272742.60547566,-0.21960334,0.34162536,-1.10527372
1314272742.65509176,-0.21826051,0.34151122,-1.10771811
1314272742.69246149,-0.21824369,0.34037656,-1.10757601
1314272742.75245762,-0.22032957,0.34365371,-1.10586119
1314272742.80204797,-0.21899736,0.34075144,-1.10655999
1314272742.85247564,-0.21868515,0.34061483,-1.10587752
1314272742.90186286,-0.22032732,0.34040907,-1.10849142
1314272742.94450116,-0.21828444,0.34051007,-1.10824299
1314272743.00556803,-0.22045945,0.34189412,-1.10598826
1314272743.05373359,-0.22034653,0.34277692,-1.10625374
1314272743.10553288,-0.21876849,0.34314507,-1.10696280
1314272743.15259886,-0.21894759,0.34149623,-1.10563362
1314272743.20451427,-0.21974048,0.34290874,-1.10741472
1314272743.25317264,-0.22209324,0.34053093,-1.10633671
1314272743.30146670,-0.22070725,0.33887553,-1.10597992
1314272743.35245109,-0.21946670,0.34049219,-1.10539031
1314272743.40556192,-0.21922165,0.33988994,-1.10815907
1314272743.44158387,-0.22096519,0.34028333,-1.10786331
1314272743.50058389,-0.21942629,0.34252030,-1.10673034
1314272743.55260897,-0.22105917,0.34002548,-1.10720313
1314272743.60445857,-0.22017026,0.33962473,-1.10595489
1314272743.65360785,-0.22065157,0.33903942,-1.10956156
1314272743.69074202,-0.21891627,0.34164035,-1.10735834
1314272743.75646257,-0.21865177,0.34151286,-1.10747504
1314272743.80446815,-0.22086023,0.34116769,-1.10826206
